DL1AIE-13 Weather Reports


Display with metric or nautical units.
time (UTC)temp
F
wind
direction
speed
MPH
gust
MPH
rain 1hr
in
rain 24hr
in
rain mn
in
humidity
%
barometer
mb
20260506043725 54 274 1.0 2.0 0.00 0.16 0.08 98 1005.9
20260506042722 54 274 2.0 3.0 0.01 0.16 0.08 98 1005.9
20260506041718 54 264 2.0 4.0 0.01 0.16 0.08 98 1005.7
20260506040735 54 271 3.0 4.0 0.01 0.16 0.08 98 1005.7
20260506035731 54 256 3.0 7.0 0.01 0.16 0.08 98 1005.9
20260506034727 54 267 4.0 8.0 0.01 0.16 0.08 98 1006.0
20260506033724 55 267 3.0 4.0 0.01 0.16 0.08 97 1005.9
20260506032720 55 255 4.0 6.0 0.00 0.15 0.07 97 1005.9
20260506031717 55 246 3.0 7.0 0.00 0.15 0.07 97 1005.8
20260506030733 55 243 4.0 8.0 0.00 0.15 0.07 97 1005.9
20260506025730 55 240 4.0 7.0 0.00 0.15 0.07 97 1006.0
20260506024727 55 231 3.0 7.0 0.00 0.15 0.07 97 1006.0
20260506023723 55 246 4.0 7.0 0.00 0.15 0.07 97 1006.0
20260506022723 55 250 4.0 8.0 0.00 0.15 0.07 97 1006.3
20260506021716 55 248 4.0 8.0 0.00 0.15 0.07 97 1006.2
20260506020733 55 233 3.0 6.0 0.00 0.15 0.07 97 1006.1
20260506015729 55 246 3.0 4.0 0.00 0.15 0.07 97 1006.2
20260506014725 55 219 4.0 9.0 0.00 0.15 0.07 97 1006.2
20260506013722 56 246 4.0 7.0 0.00 0.15 0.07 97 1006.2
20260506012718 56 220 5.0 10.0 0.01 0.15 0.07 97 1006.2
20260506011735 56 227 6.0 10.0 0.01 0.15 0.07 97 1006.3
20260506010731 56 240 5.0 11.0 0.02 0.15 0.07 97 1006.2
20260506005728 56 221 7.0 13.0 0.03 0.15 0.07 97 1006.3
20260506004728 56 225 6.0 13.0 0.05 0.15 0.07 98 1006.3
20260506003721 56 211 5.0 10.0 0.05 0.15 0.07 98 1006.4
20260506002717 56 207 3.0 7.0 0.05 0.14 0.06 99 1006.4
20260506001738 56 184 2.0 6.0 0.05 0.14 0.06 98 1006.5
20260506000731 56 168 2.0 3.0 0.04 0.13 0.05 98 1006.6
20260505235727 56 211 2.0 4.0 0.03 0.12 0.04 98 1006.7
20260505234723 56 214 2.0 3.0 0.02 0.10 0.02 98 1006.8
20260505233724 56 211 5.0 7.0 0.02 0.10 0.02 98 1006.9
20260505232716 56 215 6.0 10.0 0.01 0.09 0.01 99 1006.8
20260505231733 56 209 3.0 6.0 0.01 0.09 0.01 99 1006.9
20260505230730 56 152 1.0 3.0 0.01 0.09 0.01 99 1006.9
20260505225726 56 0.0 0.0 0.01 0.09 0.01 99 1006.9
20260505224723 56 148 1.0 2.0 0.00 0.08 0.00 99 1007.1
20260505223720 56 135 2.0 2.0 0.00 0.08 0.00 99 1007.0
20260505222715 56 152 0.0 1.0 0.00 0.08 0.00 99 1007.2
20260505221732 56 124 2.0 3.0 0.00 0.08 0.00 99 1007.1
20260505220729 56 0.0 0.0 0.00 0.08 0.00 99 1007.2
20260505215725 56 0.0 0.0 0.00 0.08 0.08 99 1007.2
20260505214722 56 150 1.0 2.0 0.00 0.08 0.08 99 1007.2
20260505213718 56 160 0.0 1.0 0.00 0.08 0.08 99 1007.2
20260505212740 56 151 1.0 2.0 0.00 0.08 0.08 99 1007.4
20260505211731 56 152 1.0 2.0 0.00 0.08 0.08 99 1007.5
20260505210728 57 154 1.0 2.0 0.00 0.08 0.08 99 1007.5
20260505205724 57 154 1.0 2.0 0.00 0.08 0.08 99 1007.5
20260505204721 57 155 1.0 2.0 0.00 0.08 0.08 99 1007.5
20260505203717 57 167 0.0 1.0 0.00 0.08 0.08 99 1007.4
20260505202734 57 0.0 0.0 0.00 0.08 0.08 99 1007.5
20260505201730 57 0.0 0.0 0.00 0.08 0.08 99 1007.4
20260505200727 57 0.0 0.0 0.00 0.08 0.08 99 1007.3
20260505195723 57 0.0 0.0 0.00 0.08 0.08 99 1007.2
20260505194720 57 0.0 0.0 0.00 0.08 0.08 99 1007.3
20260505193716 58 0.0 0.0 0.00 0.08 0.08 99 1007.2
20260505192733 58 0.0 0.0 0.00 0.08 0.08 99 1007.3
20260505191730 58 0.0 0.0 0.00 0.08 0.08 99 1007.1
20260505190726 58 0.0 0.0 0.01 0.08 0.08 99 1007.2
20260505185723 58 249 0.0 1.0 0.01 0.08 0.08 98 1007.1
20260505184720 58 276 1.0 1.0 0.01 0.08 0.08 98 1007.0
20260505183716 58 243 0.0 1.0 0.02 0.08 0.08 98 1007.1
20260505182733 58 231 1.0 1.0 0.02 0.08 0.08 98 1007.2
20260505181729 59 252 2.0 2.0 0.02 0.08 0.08 98 1007.2
20260505180725 59 248 2.0 3.0 0.01 0.07 0.07 98 1007.2
20260505175722 59 0.0 0.0 0.01 0.07 0.07 98 1007.3
20260505174718 59 0.0 0.0 0.02 0.07 0.07 98 1007.3
20260505173735 59 223 0.0 2.0 0.02 0.06 0.06 97 1007.3
20260505172731 59 239 1.0 2.0 0.03 0.06 0.06 97 1007.2
20260505171728 59 252 2.0 4.0 0.03 0.06 0.06 97 1007.2
20260505170725 59 247 1.0 3.0 0.04 0.06 0.06 97 1007.3
20260505165721 59 266 0.0 1.0 0.05 0.06 0.06 97 1007.3
20260505164717 59 261 0.0 1.0 0.05 0.05 0.05 97 1007.4
20260505163734 59 268 1.0 2.0 0.04 0.04 0.04 96 1007.5
20260505162730 59 256 1.0 2.0 0.03 0.03 0.03 96 1007.6
20260505161727 59 261 2.0 4.0 0.03 0.03 0.03 95 1007.5
20260505160726 59 221 2.0 3.0 0.02 0.02 0.02 95 1007.6
20260505152729 60 255 6.0 8.0 0.00 0.00 0.00 91 1007.3
20260505151725 60 258 6.0 9.0 0.00 0.00 0.00 88 1007.4
20260505150722 60 269 6.0 9.0 0.00 0.00 0.00 89 1007.3
20260505124732 68 327 3.0 6.0 0.00 0.00 0.00 60 1007.2
20260505123729 70 320 2.0 4.0 0.00 0.00 0.00 56 1007.5
20260505122728 71 334 2.0 3.0 0.00 0.00 0.00 57 1007.5
20260505121722 70 356 1.0 2.0 0.00 0.00 0.00 58 1007.6
20260505120718 70 341 3.0 8.0 0.00 0.00 0.00 59 1007.5
20260505115735 71 343 1.0 3.0 0.00 0.00 0.00 55 1007.7
20260505114731 69 325 4.0 7.0 0.00 0.00 0.00 59 1007.9
20260505113730 70 338 2.0 4.0 0.00 0.00 0.00 57 1007.9
20260505112724 70 325 3.0 4.0 0.00 0.00 0.00 57 1008.1
20260505111720 70 328 3.0 7.0 0.00 0.00 0.00 56 1008.2
20260505110717 71 335 3.0 6.0 0.00 0.00 0.00 56 1008.2
20260505101719 68 359 1.0 3.0 0.00 0.00 0.00 59 1008.8
20260505100735 69 359 3.0 6.0 0.00 0.00 0.00 62 1008.8
20260505095731 68 22 2.0 3.0 0.00 0.00 0.00 66 1008.8
20260505094728 68 6 3.0 4.0 0.00 0.00 0.00 66 1008.9
20260505093724 67 352 2.0 4.0 0.00 0.00 0.00 69 1008.8
20260505092720 69 1 1.0 3.0 0.00 0.00 0.00 66 1009.0
20260505091716 67 8 0.0 1.0 0.00 0.00 0.00 69 1009.0
20260505090733 66 12 1.0 2.0 0.00 0.00 0.00 72 1009.2
20260505085729 66 14 1.0 3.0 0.00 0.00 0.00 69 1009.1
20260505084725 65 15 1.0 2.0 0.00 0.00 0.00 70 1009.5
20260505083722 64 26 3.0 6.0 0.00 0.00 0.00 73 1009.4
20260505082718 65 14 1.0 4.0 0.00 0.00 0.00 72 1009.3
20260505081735 64 19 2.0 4.0 0.00 0.00 0.00 75 1009.5
20260505080731 63 8 0.0 1.0 0.00 0.00 0.00 78 1009.5
20260505075728 61 11 0.0 1.0 0.00 0.00 0.00 81 1009.7
20260505074724 60 13 0.0 2.0 0.00 0.00 0.00 82 1009.7
20260505073720 60 0.0 0.0 0.00 0.00 0.00 84 1009.8
20260505072717 59 13 1.0 2.0 0.00 0.00 0.00 85 1010.0
20260505071733 59 16 2.0 3.0 0.00 0.00 0.00 86 1010.0
20260505070730 59 18 2.0 3.0 0.00 0.00 0.00 87 1010.1
20260505065726 58 21 2.0 4.0 0.00 0.00 0.00 86 1010.0
20260505064723 58 16 2.0 3.0 0.00 0.00 0.00 87 1009.9
20260505063723 58 0.0 0.0 0.00 0.00 0.00 87 1009.9
20260505062735 58 6 0.0 1.0 0.00 0.00 0.00 89 1010.0
20260505061732 57 7 0.0 2.0 0.00 0.00 0.00 90 1010.0
20260505060728 57 6 0.0 1.0 0.00 0.00 0.00 91 1010.0
20260505055724 57 6 0.0 1.0 0.00 0.00 0.00 93 1010.2
20260505054720 56 0.0 0.0 0.00 0.00 0.00 93 1010.1
20260505053718 56 0.0 0.0 0.00 0.00 0.00 94 1010.0
20260505052734 56 0.0 0.0 0.00 0.00 0.00 94 1010.0
20260505051730 56 0.0 0.0 0.00 0.00 0.00 95 1010.0
20260505050726 56 0.0 0.0 0.00 0.00 0.00 95 1009.9